Location: downtown San Diego
(32.7310°N, 117.1990°W)
Time: 19:45:44
(UTC-08:00)

USA 215 - Pass Details

Date: 12 July 2018
Orbit: 1100 x 1107 km, 123.0° (Epoch: 11 November)

Event Time Altitude Azimuth Distance (km) Brightness Sun altitude
Exits shadow 23:46:41 55° 55° (NE) 1,303 3.6 -33.1°
Maximum altitude 23:47:02 56° 42° (NE) 1,295 3.6 -33.1°
Drops below altitude 10° 23:53:22 10° 327° (NNW) 2,958 6.3 -33.5°
Sets 23:55:54 0° 323° (NW) 3,918 7.1 -33.7°
